Anchorage Merrill, AK

5:58 AM AKDT on July 25, 2017 (GMT -0800)
Merrill

Weather History for PAMR - October, 2012

Change the Weather History Date:

Sunday, October 21, 2012

  Actual Average Record
Temperature  
Mean Temperature 27 °F -  
Max Temperature 35 °F 35 °F 55 °F (2002)
Min Temperature 19 °F 23 °F 6 °F (1996)
Degree Days  
Heating Degree Days 38    
Moisture  
Dew Point 11 °F    
Average Humidity 52    
Maximum Humidity 74    
Minimum Humidity 27    
Precipitation  
Precipitation 0.00 in - - ()
Sea Level Pressure  
Sea Level Pressure 30.31 in    
Wind  
Wind Speed 6 mph (East)    
Max Wind Speed 15 mph    
Max Gust Speed 26 mph    
Visibility 10 miles    
Events      
Averages and records for this station are not official NWS values.
T = Trace of Precipitation, MM = Missing Value Source: NWS Daily Summary

Daily Weather History Graph

Daily Weather History Graph

Search for Another Location

Airport or City:

Trip Planner

Search our weather history database for the weather conditions in past years. The results will help you decide how hot, cold, wet, or windy it might be!

Date:

Astronomy

Oct. 21, 2012 Rise Set
Actual Time 8:59 AM AKDT 6:27 PM AKDT
Civil Twilight 8:14 AM AKDT 7:12 PM AKDT
Nautical Twilight 7:24 AM AKDT 8:02 PM AKDT
Astronomical Twilight 6:33 AM AKDT 8:52 PM AKDT
Moon 3:59 PM AKDT (10/21) No Moon Set
Length of Visible Light 10h 57m
Length of Day
9h 27m
Waxing Crescent, 47% of the Moon is Illuminated
Oct 21
Waxing Crescent
Oct 21
First Quarter
Oct 29
Full
Nov 6
Last Quarter
Nov 13
New

Hourly Weather History & Observations

Time (AKDT) Temp. Windchill Dew Point Humidity Pressure Visibility Wind Dir Wind Speed Gust Speed Precip Events Conditions
12:53 AM 35.1 °F 25.5 °F 3.9 °F 27% 30.27 in 10.0 mi NNE 15.0 mph 26.5 mph N/A   Clear
2:53 AM 33.1 °F 30.0 °F 3.9 °F 29% 30.31 in 10.0 mi NE 3.5 mph - N/A   Clear
3:53 AM 33.1 °F 25.5 °F 7.0 °F 34% 30.31 in 10.0 mi North 9.2 mph - N/A   Clear
4:53 AM 32.0 °F 23.0 °F 8.1 °F 37% 30.32 in 10.0 mi North 11.5 mph - N/A   Clear
5:53 AM 24.1 °F 19.7 °F 10.0 °F 55% 30.31 in 10.0 mi ESE 3.5 mph - N/A   Clear
6:53 AM 21.9 °F - 10.9 °F 63% 30.32 in 10.0 mi Calm Calm - N/A   Clear
7:53 AM 21.0 °F - 12.9 °F 71% 30.33 in 10.0 mi Calm Calm - N/A   Clear
8:53 AM 19.9 °F - 12.9 °F 74% 30.33 in 10.0 mi Calm Calm - N/A   Clear
9:53 AM 19.9 °F - 12.9 °F 74% 30.33 in 10.0 mi Calm Calm - N/A   Clear
10:53 AM 24.1 °F - 15.1 °F 69% 30.34 in 10.0 mi North - - N/A   Clear
11:53 AM 30.9 °F - 12.9 °F 47% 30.34 in 10.0 mi Calm Calm - N/A   Clear
12:53 PM 32.0 °F 27.5 °F 12.9 °F 45% 30.33 in 10.0 mi South 4.6 mph - N/A   Clear
1:53 PM 32.0 °F 27.5 °F 17.1 °F 54% 30.32 in 10.0 mi Variable 4.6 mph - N/A   Clear
2:53 PM 33.1 °F 28.7 °F 12.9 °F 43% 30.31 in 10.0 mi Variable 4.6 mph - N/A   Clear
3:53 PM 33.1 °F 27.7 °F 12.9 °F 43% 30.30 in 10.0 mi South 5.8 mph - N/A   Clear
4:53 PM 33.1 °F 26.9 °F 12.0 °F 42% 30.30 in 10.0 mi South 6.9 mph - N/A   Clear
5:53 PM 32.0 °F - 10.9 °F 42% 30.28 in 10.0 mi Calm Calm - N/A   Clear
6:53 PM 30.0 °F - 10.9 °F 45% 30.28 in 10.0 mi Calm Calm - N/A   Clear
7:53 PM 28.0 °F 24.2 °F 12.0 °F 51% 30.29 in 10.0 mi ESE 3.5 mph - N/A   Clear
8:53 PM 25.0 °F - 12.0 °F 58% 30.29 in 10.0 mi Calm Calm - N/A   Clear
9:53 PM 21.9 °F 17.2 °F 10.9 °F 63% 30.28 in 10.0 mi East 3.5 mph - N/A   Clear
10:53 PM 23.0 °F - 12.0 °F 63% 30.29 in 10.0 mi Calm Calm - N/A   Clear
11:53 PM 21.0 °F - 10.0 °F 63% 30.29 in 10.0 mi Calm Calm - N/A   Clear